Tracking 17857 objects as of 29-September-2016
HD Live streaming from Space Station
objects crossing your sky now

COSMOS 2251 DEB

Track COSMOS 2251 DEB now!
10-day predictions


NORAD ID: 34447
Int'l Code: 1993-036SQ
Perigee: 632.9 km
Apogee: 665.7 km
Inclination: 74.0 °
Period: 97.6 minutes
Semi major axis: 7020 km
RCS: 0.038 m2 (small)
Launch date: June 16, 1993
Source: Commonwealth of Independent States (former USSR) (CIS)
Launch site: PLESETSK MISSILE AND SPACE COMPLEX (PKMTR)

Note: This is SATELLITE DEBRIS
Your satellite tracking list
Your tracking list is empty





NASA's NSSDC Master Catalog

Two Line Element Set (TLE):
1 34447U 93036SQ  16272.14688999  .00004935  00000-0  71894-3 0  9998
2 34447  74.0287 150.1698 0023359  35.7453  85.3712 14.75935130403114
Source of the keplerian elements: AFSPC

N2YO: 604